�N����,����,�g�[���i���ԁj���x,�g�[�����x,��g�[���i���ցj���x,����
 2003/04/01, 0:00,21.7,62,15,15.1
 2003/04/01, 0:15,21.9,62,14.9,15.1
 2003/04/01, 0:30,22.1,62,14.9,15.1
 2003/04/01, 0:45,22.2,61,14.9,15.2
 2003/04/01, 1:00,22.4,61,14.9,15.2
 2003/04/01, 1:15,22.5,61,14.9,15.2
 2003/04/01, 1:30,22.8,60,14.9,15.2
 2003/04/01, 1:45,22.5,58,14.9,15.2
 2003/04/01, 2:00,21.5,59,14.9,15.2
 2003/04/01, 2:15,21.1,59,14.9,15.3
 2003/04/01, 2:30,20.8,59,14.8,15.3
 2003/04/01, 2:45,20.6,59,14.8,15.3
 2003/04/01, 3:00,20.4,59,14.8,15.3
 2003/04/01, 3:15,20.2,59,14.8,15.4
 2003/04/01, 3:30,20,59,14.8,15.4
 2003/04/01, 3:45,19.9,60,14.8,15.4
 2003/04/01, 4:00,19.8,60,14.8,15.4
 2003/04/01, 4:15,19.6,60,14.8,15.4
 2003/04/01, 4:30,19.5,60,14.7,15.4
 2003/04/01, 4:45,19.4,60,14.7,15.4
 2003/04/01, 5:00,19.3,60,14.7,15.5
 2003/04/01, 5:15,19.1,60,14.7,15.4
 2003/04/01, 5:30,19.1,60,14.6,15.5
 2003/04/01, 5:45,19,60.5,14.7,15.5
 2003/04/01, 6:00,18.8,61,14.6,15.5
 2003/04/01, 6:15,18.9,64.5,14.6,15.5
 2003/04/01, 6:30,18.8,65,14.6,15.5
 2003/04/01, 6:45,20,64,14.6,15.5
 2003/04/01, 7:00,20.5,63,14.6,15.5
 2003/04/01, 7:15,21.5,66.5,14.6,15.6
 2003/04/01, 7:30,20.9,67,14.6,15.5
 2003/04/01, 7:45,20.2,67,14.6,15.6
 2003/04/01, 8:00,20,66,14.6,15.6
 2003/04/01, 8:15,20.2,62,14.6,15.6
 2003/04/01, 8:30,21.3,63,14.7,15.6
 2003/04/01, 8:45,22,64,14.6,15.6
 2003/04/01, 9:00,22,62,14.7,15.6
 2003/04/01, 9:15,20.6,60.5,14.7,15.6
 2003/04/01, 9:30,19.8,60,14.7,15.6
 2003/04/01, 9:45,19.5,61,14.7,15.6
 2003/04/01,10:00,19.2,61,14.7,15.6
 2003/04/01,10:15,19.1,61,14.8,15.6
 2003/04/01,10:30,19,61,14.8,15.7
 2003/04/01,10:45,18.9,61,14.9,15.7
 2003/04/01,11:00,18.9,60,14.9,15.7
 2003/04/01,11:15,18.9,60.5,14.9,15.7
 2003/04/01,11:30,18.9,60,15.1,15.7
 2003/04/01,11:45,18.9,60,15.1,15.7
 2003/04/01,12:00,18.8,60,15,15.7
 2003/04/01,12:15,18.8,60,15.1,15.7
 2003/04/01,12:30,18.8,60,15.1,15.7
 2003/04/01,12:45,18.8,60.5,15.2,15.7
 2003/04/01,13:00,18.8,60,15.2,15.8
 2003/04/01,13:15,18.7,60,15.2,15.8
 2003/04/01,13:30,18.7,60,15.3,15.7
 2003/04/01,13:45,18.7,60,15.3,15.8
 2003/04/01,14:00,18.7,60,15.3,15.8
 2003/04/01,14:15,18.7,60,15.4,15.8
 2003/04/01,14:30,18.7,60,15.3,15.8
 2003/04/01,14:45,18.7,60.5,15.4,15.8
 2003/04/01,15:00,18.7,60,15.5,15.8
 2003/04/01,15:15,18.7,60,15.4,15.8
 2003/04/01,15:30,18.7,61,15.5,15.9
 2003/04/01,15:45,18.7,61,15.5,15.9
 2003/04/01,16:00,18.7,61,15.5,15.9
 2003/04/01,16:15,18.6,61,15.6,15.9
 2003/04/01,16:30,18.6,61,15.6,15.9
 2003/04/01,16:45,18.6,61,15.6,15.9
 2003/04/01,17:00,18.6,61,15.5,15.9
 2003/04/01,17:15,18.6,61,15.6,15.9
 2003/04/01,17:30,18.6,61,15.6,15.9
 2003/04/01,17:45,18.6,61,15.6,15.9
 2003/04/01,18:00,18.5,61,15.7,16
 2003/04/01,18:15,18.5,61,15.6,15.9
 2003/04/01,18:30,18.5,61,15.6,16
 2003/04/01,18:45,18.5,61,15.5,16
 2003/04/01,19:00,18.4,61,15.5,16
 2003/04/01,19:15,18.4,61,15.6,16
 2003/04/01,19:30,18.3,61,15.5,16.1
 2003/04/01,19:45,18.3,61,15.5,16
 2003/04/01,20:00,18.3,61,15.5,16.1
 2003/04/01,20:15,18.2,61,15.5,16.1
 2003/04/01,20:30,18.2,61,15.5,16.1
 2003/04/01,20:45,18.1,61,15.5,16.1
 2003/04/01,21:00,18.1,61,15.4,16.1
 2003/04/01,21:15,18,61,15.4,16.1
 2003/04/01,21:30,18,61,15.4,16.1
 2003/04/01,21:45,18,61,15.4,16.1
 2003/04/01,22:00,18,62,15.5,16.2
 2003/04/01,22:15,18.1,62,15.5,16.2
 2003/04/01,22:30,18.7,65,15.5,16.2
 2003/04/01,22:45,20,65,15.6,16.2
 2003/04/01,23:00,20.5,65,15.6,16.2
 2003/04/01,23:15,20.9,63,15.6,16.2
 2003/04/01,23:30,21.6,63,15.6,16.2
 2003/04/01,23:45,22,63.5,15.6,16.2
 2003/04/02, 0:00,21,60,15.6,16.2
 2003/04/02, 0:15,20.4,63,15.6,16.2
 2003/04/02, 0:30,20.1,63,15.5,16.2
 2003/04/02, 0:45,19.8,63,15.5,16.2
 2003/04/02, 1:00,19.6,63,15.6,16.2
 2003/04/02, 1:15,19.5,63,15.6,16.2
 2003/04/02, 1:30,19.3,63,15.5,16.3
 2003/04/02, 1:45,19.1,63,15.5,16.3
 2003/04/02, 2:00,19,63,15.5,16.3
 2003/04/02, 2:15,18.9,63,15.5,16.3
 2003/04/02, 2:30,18.8,63,15.4,16.3
 2003/04/02, 2:45,18.6,63,15.4,16.3
 2003/04/02, 3:00,18.6,63,15.4,16.3
 2003/04/02, 3:15,18.5,63,15.4,16.3
 2003/04/02, 3:30,18.4,63,15.3,16.3
 2003/04/02, 3:45,18.4,63,15.4,16.3
 2003/04/02, 4:00,18.3,63,15.3,16.3
 2003/04/02, 4:15,18.1,63,15.2,16.4
 2003/04/02, 4:30,18.1,63,15.2,16.4
 2003/04/02, 4:45,18,64,15.2,16.4
 2003/04/02, 5:00,18,64,15.1,16.4
 2003/04/02, 5:15,17.9,63.5,15.1,16.3
 2003/04/02, 5:30,17.8,64,15.1,16.4
 2003/04/02, 5:45,17.8,66,15.1,16.4
 2003/04/02, 6:00,17.8,72,15.1,16.4
 2003/04/02, 6:15,17.8,72,15,16.4
 2003/04/02, 6:30,17.6,70,15,16.4
 2003/04/02, 6:45,18.4,71,14.9,16.4
 2003/04/02, 7:00,19.3,71,14.9,16.4
 2003/04/02, 7:15,19.8,66.5,14.9,16.4
 2003/04/02, 7:30,20.4,69,14.9,16.3
 2003/04/02, 7:45,20.8,66.5,14.9,16.4
 2003/04/02, 8:00,20.3,66,14.9,16.4
 2003/04/02, 8:15,19.6,67,14.9,16.4
 2003/04/02, 8:30,19.3,67,14.8,16.4
 2003/04/02, 8:45,19.2,66,14.8,16.3
 2003/04/02, 9:00,19.6,67,14.8,16.4
 2003/04/02, 9:15,20.8,66,14.8,16.4
 2003/04/02, 9:30,20.8,65,14.8,16.4
 2003/04/02, 9:45,19.5,62.5,14.8,16.3
 2003/04/02,10:00,19,64,14.8,16.3
 2003/04/02,10:15,18.9,64,14.8,16.3
 2003/04/02,10:30,18.6,64,14.8,16.3
 2003/04/02,10:45,18.5,64,14.8,16.3
 2003/04/02,11:00,18.6,64,14.8,16.3
 2003/04/02,11:15,18.4,64,14.9,16.3
 2003/04/02,11:30,18.4,64,14.9,16.3
 2003/04/02,11:45,18.4,64,14.9,16.3
 2003/04/02,12:00,18.3,64,15,16.3
 2003/04/02,12:15,18.4,64,15,16.3
 2003/04/02,12:30,18.3,64,15.1,16.3
 2003/04/02,12:45,18.4,64,15.1,16.3
 2003/04/02,13:00,18.4,64,15.2,16.3
 2003/04/02,13:15,18.5,63.5,15.3,16.3
 2003/04/02,13:30,18.7,63,15.5,16.3
 2003/04/02,13:45,18.9,63,15.5,16.3
 2003/04/02,14:00,18.9,63,15.6,16.3
 2003/04/02,14:15,18.9,63,15.6,16.3
 2003/04/02,14:30,18.9,63,15.6,16.3
 2003/04/02,14:45,18.9,63,15.6,16.3
 2003/04/02,15:00,18.8,63,15.5,16.3
 2003/04/02,15:15,18.8,63,15.6,16.3
 2003/04/02,15:30,18.7,63,15.5,16.3
 2003/04/02,15:45,18.6,63,15.6,16.3
 2003/04/02,16:00,18.6,63,15.5,16.4
 2003/04/02,16:15,18.6,63.5,15.5,16.4
 2003/04/02,16:30,18.5,64,15.6,16.4
 2003/04/02,16:45,18.5,64,15.6,16.4
 2003/04/02,17:00,18.4,65,15.5,16.4
 2003/04/02,17:15,18.4,65,15.5,16.4
 2003/04/02,17:30,18.3,65,15.5,16.4
 2003/04/02,17:45,18.2,65,15.4,16.4
 2003/04/02,18:00,18.2,65,15.4,16.4
 2003/04/02,18:15,18.1,65,15.4,16.4
 2003/04/02,18:30,18.1,65,15.3,16.4
 2003/04/02,18:45,18,65,15.3,16.4
 2003/04/02,19:00,18,65,15.4,16.4
 2003/04/02,19:15,18,65,15.4,16.4
 2003/04/02,19:30,17.9,65,15.3,16.4
 2003/04/02,19:45,17.9,65,15.2,16.4
 2003/04/02,20:00,17.8,65,15.2,16.4
 2003/04/02,20:15,17.8,65,15.2,16.4
 2003/04/02,20:30,17.7,65,15.2,16.4
 2003/04/02,20:45,17.6,65,15.1,16.4
 2003/04/02,21:00,17.5,65,15.1,16.4
 2003/04/02,21:15,17.5,65,15.1,16.4
 2003/04/02,21:30,17.4,65,15,16.4
 2003/04/02,21:45,17.3,65,15,16.4
 2003/04/02,22:00,17.3,66,15.1,16.4
 2003/04/02,22:15,18.3,68,15.1,16.4
 2003/04/02,22:30,19.1,67,15.1,16.4
 2003/04/02,22:45,19.8,69.5,15.1,16.4
 2003/04/02,23:00,19.9,71,15,16.4
 2003/04/02,23:15,20.4,72.5,15.1,16.4
 2003/04/02,23:30,20.6,74,15,16.4
 2003/04/02,23:45,20.6,74.5,15,16.4
 2003/04/03, 0:00,20.3,75,14.9,16.4
 2003/04/03, 0:15,19.5,79,14.9,16.4
 2003/04/03, 0:30,19.2,77,14.9,16.4
 2003/04/03, 0:45,19,79,14.8,16.4
 2003/04/03, 1:00,18.8,78,14.8,16.4
 2003/04/03, 1:15,18.6,78,14.8,16.4
 2003/04/03, 1:30,18.5,78,14.8,16.4
 2003/04/03, 1:45,18.2,78,14.8,16.4
 2003/04/03, 2:00,18.2,78,14.7,16.4
 2003/04/03, 2:15,18,78,14.7,16.4
 2003/04/03, 2:30,17.9,78,14.6,16.4
 2003/04/03, 2:45,17.9,78,14.6,16.4
 2003/04/03, 3:00,17.7,78,14.6,16.4
 2003/04/03, 3:15,17.6,78,14.6,16.4
 2003/04/03, 3:30,17.5,78,14.5,16.4
 2003/04/03, 3:45,17.4,77.5,14.4,16.4
 2003/04/03, 4:00,17.3,77,14.4,16.4
 2003/04/03, 4:15,17.2,77,14.4,16.4
 2003/04/03, 4:30,17.1,77,14.4,16.4
 2003/04/03, 4:45,17,77,14.4,16.4
 2003/04/03, 5:00,16.9,77,14.3,16.4
 2003/04/03, 5:15,16.9,76.5,14.3,16.4
 2003/04/03, 5:30,16.8,76,14.2,16.3
 2003/04/03, 5:45,16.8,76,14.1,16.3
 2003/04/03, 6:00,16.7,76,14.1,16.3
 2003/04/03, 6:15,16.6,75.5,14.1,16.3
 2003/04/03, 6:30,16.5,75,14.1,16.3
 2003/04/03, 6:45,16.5,75,14.1,16.3
 2003/04/03, 7:00,17.5,78,14,16.3
 2003/04/03, 7:15,17.8,78,14.1,16.3
 2003/04/03, 7:30,18.2,78,14.1,16.3
 2003/04/03, 7:45,19.4,77.5,14.1,16.3
 2003/04/03, 8:00,18.8,75,14.1,16.2
 2003/04/03, 8:15,18.5,79,14.1,16.2
 2003/04/03, 8:30,18.3,78,14.1,16.2
 2003/04/03, 8:45,18.2,76,14.2,16.2
 2003/04/03, 9:00,19.8,73,14.3,16.2
 2003/04/03, 9:15,20.3,72.5,14.3,16.2
 2003/04/03, 9:30,19.4,69,14.4,16.2
 2003/04/03, 9:45,19,69,14.6,16.2
 2003/04/03,10:00,19,68,14.7,16.2
 2003/04/03,10:15,19,67.5,14.8,16.2
 2003/04/03,10:30,19.1,67,14.9,16.2
 2003/04/03,10:45,19,66,15,16.2
 2003/04/03,11:00,19.2,66,15,16.2
 2003/04/03,11:15,19.2,65.5,15.2,16.2
 2003/04/03,11:30,19.3,66,15.2,16.2
 2003/04/03,11:45,19.5,65,15.5,16.2
 2003/04/03,12:00,19.6,65,15.5,16.1
 2003/04/03,12:15,19.6,65,15.6,16.1
 2003/04/03,12:30,19.8,64,15.8,16.1
 2003/04/03,12:45,20,64,15.7,16.1
 2003/04/03,13:00,20.2,64,15.8,16.1
 2003/04/03,13:15,20.4,64,15.9,16.1
 2003/04/03,13:30,20.6,64,16,16.1
 2003/04/03,13:45,20.6,63.5,16,16.2
 2003/04/03,14:00,20.7,64,16.1,16.1
 2003/04/03,14:15,20.7,63.5,16.1,16.1
 2003/04/03,14:30,20.8,63,16.2,16.1
 2003/04/03,14:45,20.8,63.5,16.2,16.1
 2003/04/03,15:00,20.9,63,16.3,16.1
 2003/04/03,15:15,20.9,64,16.4,16.2
 2003/04/03,15:30,20.9,63,16.4,16.2
 2003/04/03,15:45,21,63.5,16.4,16.2
 2003/04/03,16:00,21,64,16.5,16.2
 2003/04/03,16:15,21,64,16.5,16.2
 2003/04/03,16:30,21,64,16.6,16.2
 2003/04/03,16:45,21,64,16.6,16.2
 2003/04/03,17:00,21,64,16.6,16.2
 2003/04/03,17:15,20.9,64,16.6,16.2
 2003/04/03,17:30,20.8,64,16.6,16.2
 2003/04/03,17:45,20.7,65,16.6,16.2
 2003/04/03,18:00,20.6,64,16.6,16.3
 2003/04/03,18:15,20.5,65.5,16.5,16.3
 2003/04/03,18:30,20.4,66,16.4,16.3
 2003/04/03,18:45,20.2,66,16.4,16.3
 2003/04/03,19:00,20.1,66,16.3,16.3
 2003/04/03,19:15,20,66,16.3,16.3
 2003/04/03,19:30,19.9,66,16.3,16.3
 2003/04/03,19:45,19.8,66,16.2,16.4
 2003/04/03,20:00,19.7,65,16.2,16.4
 2003/04/03,20:15,19.5,65,16.1,16.4
 2003/04/03,20:30,19.5,65,16.1,16.4
 2003/04/03,20:45,19.4,65,16,16.4
 2003/04/03,21:00,19.2,65,16,16.4
 2003/04/03,21:15,19.6,65,15.9,16.4
 2003/04/03,21:30,20.8,65,15.8,16.4
 2003/04/03,21:45,21.5,64,15.8,16.4
 2003/04/03,22:00,21.8,62,15.9,16.4
 2003/04/03,22:15,22,60.5,15.8,16.4
 2003/04/03,22:30,22.9,62,15.7,16.4
 2003/04/03,22:45,23.1,63.5,15.7,16.4
 2003/04/03,23:00,23,62,15.6,16.4
 2003/04/03,23:15,22.5,57.5,15.7,16.4
 2003/04/03,23:30,22.9,56,15.7,16.4
 2003/04/03,23:45,21.7,55.5,15.7,16.5
 2003/04/04, 0:00,22,56,15.8,16.4
 2003/04/04, 0:15,22.2,58.5,15.8,16.5
 2003/04/04, 0:30,21.3,61,15.6,16.5
 2003/04/04, 0:45,20.6,58.5,15.6,16.5
 2003/04/04, 1:00,20.2,61,15.7,16.5
 2003/04/04, 1:15,20,61,15.6,16.5
 2003/04/04, 1:30,19.8,62,15.6,16.5
 2003/04/04, 1:45,19.5,62,15.5,16.5
 2003/04/04, 2:00,19.3,62,15.5,16.5
 2003/04/04, 2:15,19.2,62,15.6,16.5
 2003/04/04, 2:30,19.1,62,15.5,16.5
 2003/04/04, 2:45,19,62,15.4,16.5
 2003/04/04, 3:00,18.8,63,15.4,16.5
 2003/04/04, 3:15,18.6,63,15.4,16.5
 2003/04/04, 3:30,18.6,62,15.3,16.5
 2003/04/04, 3:45,18.5,62.5,15.2,16.5
 2003/04/04, 4:00,18.4,62,15.2,16.5
 2003/04/04, 4:15,18.3,62,15.2,16.5
 2003/04/04, 4:30,18.2,62,15.2,16.5
 2003/04/04, 4:45,18.1,62,15.1,16.5
 2003/04/04, 5:00,18,62,15.1,16.5
 2003/04/04, 5:15,18,65,15.1,16.5
 2003/04/04, 5:30,17.9,66,15,16.5
 2003/04/04, 5:45,17.9,66,15,16.5
 2003/04/04, 6:00,17.8,65,15,16.5
 2003/04/04, 6:15,17.8,64,14.9,16.5
 2003/04/04, 6:30,17.7,64,15,16.5
 2003/04/04, 6:45,17.7,63,14.9,16.5
 2003/04/04, 7:00,19,67,14.9,16.5
 2003/04/04, 7:15,19.8,69.5,14.9,16.5
 2003/04/04, 7:30,20.4,69,14.9,16.5
 2003/04/04, 7:45,20.9,67,14.9,16.5
 2003/04/04, 8:00,20.3,65,14.9,16.5
 2003/04/04, 8:15,19.7,65.5,14.8,16.5
 2003/04/04, 8:30,19.4,65,14.8,16.5
 2003/04/04, 8:45,19.2,64.5,14.9,16.5
 2003/04/04, 9:00,20.3,65,14.8,16.5
 2003/04/04, 9:15,21,65,14.9,16.5
 2003/04/04, 9:30,21.3,65,14.9,16.5
 2003/04/04, 9:45,21,64.5,14.8,16.4
 2003/04/04,10:00,20.3,64,14.8,16.4
 2003/04/04,10:15,20.1,64,14.8,16.4
 2003/04/04,10:30,19.3,60,14.8,16.4
 2003/04/04,10:45,19.3,61,14.8,16.4
 2003/04/04,11:00,19.2,62,14.8,16.4
 2003/04/04,11:15,19,63,14.8,16.4
 2003/04/04,11:30,19,63,14.8,16.4
 2003/04/04,11:45,18.9,63,14.8,16.4
 2003/04/04,12:00,18.7,63,14.8,16.4
 2003/04/04,12:15,18.6,63,14.8,16.4
 2003/04/04,12:30,18.6,64,14.7,16.4
 2003/04/04,12:45,18.5,63,14.8,16.4
 2003/04/04,13:00,18.4,63,14.8,16.4
 2003/04/04,13:15,18.4,63,14.8,16.4
 2003/04/04,13:30,18.3,64,14.8,16.4
 2003/04/04,13:45,18.2,64,14.7,16.4
 2003/04/04,14:00,18.1,64,14.7,16.4
 2003/04/04,14:15,18,64,14.7,16.4
 2003/04/04,14:30,18,64,14.7,16.3
 2003/04/04,14:45,17.9,64,14.6,16.3
 2003/04/04,15:00,17.8,64,14.6,16.4
 2003/04/04,15:15,17.8,64,14.6,16.3
 2003/04/04,15:30,17.7,64,14.5,16.3
 2003/04/04,15:45,17.6,64,14.6,16.3
 2003/04/04,16:00,17.6,64,14.5,16.3
 2003/04/04,16:15,17.5,64,14.5,16.3
 2003/04/04,16:30,17.4,64,14.4,16.3
 2003/04/04,16:45,17.2,64,14.4,16.3
 2003/04/04,17:00,17.2,64,14.4,16.2
 2003/04/04,17:15,17,64,14.3,16.2
 2003/04/04,17:30,16.9,65,14.3,16.2
 2003/04/04,17:45,16.9,65,14.2,16.2
 2003/04/04,18:00,16.8,65,14.2,16.2
 2003/04/04,18:15,16.7,65,14.1,16.2
 2003/04/04,18:30,16.6,65,14.1,16.2
 2003/04/04,18:45,16.5,65,14.1,16.2
 2003/04/04,19:00,16.4,65,14,16.2
 2003/04/04,19:15,16.4,65,13.9,16.2
 2003/04/04,19:30,16.3,65,13.9,16.2
 2003/04/04,19:45,16.2,65,13.8,16.1
 2003/04/04,20:00,16.1,65,13.8,16.1
 2003/04/04,20:15,16,65,13.8,16.1
 2003/04/04,20:30,16,65,13.7,16.1
 2003/04/04,20:45,15.9,65,13.6,16.1
 2003/04/04,21:00,15.8,66,13.6,16
 2003/04/04,21:15,15.9,69.5,13.7,16.1
 2003/04/04,21:30,17,72,13.7,16
 2003/04/04,21:45,18.2,70.5,13.6,16
 2003/04/04,22:00,18.7,68,13.5,16
 2003/04/04,22:15,19.4,68.5,13.6,16
 2003/04/04,22:30,20.1,70,13.6,15.9
 2003/04/04,22:45,19.6,66,13.6,15.9
 2003/04/04,23:00,19.8,64,13.6,15.9
 2003/04/04,23:15,20.4,64.5,13.6,15.9
 2003/04/04,23:30,20.6,65,13.5,15.9
 2003/04/04,23:45,20.8,64.5,13.5,15.9
 2003/04/05, 0:00,21.1,64,13.5,15.9
 2003/04/05, 0:15,21.2,63.5,13.4,15.9
 2003/04/05, 0:30,20.2,63,13.5,15.8
 2003/04/05, 0:45,19.8,64.5,13.4,15.8
 2003/04/05, 1:00,19.4,64,13.4,15.8
 2003/04/05, 1:15,18.6,64.5,13.4,15.8
 2003/04/05, 1:30,18.2,65,13.3,15.8
 2003/04/05, 1:45,18,66,13.4,15.8
 2003/04/05, 2:00,17.8,66,13.3,15.8
 2003/04/05, 2:15,17.6,67,13.3,15.7
 2003/04/05, 2:30,17.5,67,13.3,15.7
 2003/04/05, 2:45,17.3,67,13.2,15.7
 2003/04/05, 3:00,17.2,67,13.2,15.7
 2003/04/05, 3:15,17.1,66.5,13.2,15.7
 2003/04/05, 3:30,17,66,13.2,15.7
 2003/04/05, 3:45,17,66,13.1,15.7
 2003/04/05, 4:00,16.8,66,13.1,15.6
 2003/04/05, 4:15,16.8,65.5,13.1,15.6
 2003/04/05, 4:30,16.6,66,13.1,15.6
 2003/04/05, 4:45,16.5,65,13,15.6
 2003/04/05, 5:00,16.4,65,13,15.6
 2003/04/05, 5:15,16.2,65,12.9,15.6
 2003/04/05, 5:30,16.1,66,12.9,15.5
 2003/04/05, 5:45,16,65,12.9,15.5
 2003/04/05, 6:00,16,65,12.8,15.5
 2003/04/05, 6:15,15.9,65.5,12.9,15.5
 2003/04/05, 6:30,15.7,66,12.8,15.5
 2003/04/05, 6:45,15.8,66,12.8,15.5
 2003/04/05, 7:00,15.6,66,12.8,15.5
 2003/04/05, 7:15,15.6,66,12.8,15.4
 2003/04/05, 7:30,15.4,66,12.7,15.4
 2003/04/05, 7:45,17.1,68,12.7,15.4
 2003/04/05, 8:00,17.8,68,12.6,15.4
 2003/04/05, 8:15,18.7,71,12.7,15.4
 2003/04/05, 8:30,19,73,12.7,15.4
 2003/04/05, 8:45,17.8,75,12.8,15.3
 2003/04/05, 9:00,16.7,72,12.8,15.3
 2003/04/05, 9:15,16.3,74.5,12.8,15.3
 2003/04/05, 9:30,16,78,12.8,15.3
 2003/04/05, 9:45,15.9,79,12.8,15.3
 2003/04/05,10:00,15.7,81,12.9,15.2
 2003/04/05,10:15,15.6,82,12.9,15.2
 2003/04/05,10:30,15.5,83,12.8,15.3
 2003/04/05,10:45,15.4,83.5,12.9,15.2
 2003/04/05,11:00,15.3,84,12.8,15.2
 2003/04/05,11:15,15.2,83.5,12.8,15.2
 2003/04/05,11:30,15.2,84,12.8,15.2
 2003/04/05,11:45,15.1,83.5,12.8,15.1
 2003/04/05,12:00,14.9,82,12.8,15.1
 2003/04/05,12:15,14.9,81.5,12.8,15.1
 2003/04/05,12:30,14.9,82,12.8,15.1
 2003/04/05,12:45,14.8,81.5,12.8,15.1
 2003/04/05,13:00,14.8,81,12.7,15.1
 2003/04/05,13:15,14.7,81.5,12.7,15.1
 2003/04/05,13:30,14.7,82,12.7,15.1
 2003/04/05,13:45,14.6,82,12.7,15
 2003/04/05,14:00,14.6,81,12.7,15
 2003/04/05,14:15,14.5,81.5,12.6,15
 2003/04/05,14:30,14.5,81,12.7,15
 2003/04/05,14:45,14.4,81,12.6,15
 2003/04/05,15:00,14.4,81,12.6,15
 2003/04/05,15:15,14.4,80.5,12.5,14.9
 2003/04/05,15:30,14.3,81,12.5,14.9
 2003/04/05,15:45,14.2,81,12.6,14.9
 2003/04/05,16:00,14.3,81,12.5,14.9
 2003/04/05,16:15,14.2,81.5,12.4,14.9
 2003/04/05,16:30,14.2,81,12.4,14.9
 2003/04/05,16:45,14.1,81,12.4,14.9
 2003/04/05,17:00,14.1,81,12.4,14.8
 2003/04/05,17:15,14.1,80.5,12.5,14.9
 2003/04/05,17:30,14.1,80,12.5,14.8
 2003/04/05,17:45,14,79,12.4,14.8
 2003/04/05,18:00,17,76,12.4,14.8
 2003/04/05,18:15,20.8,72.5,12.4,14.8
 2003/04/05,18:30,21.3,69,12.3,14.8
 2003/04/05,18:45,21.5,69.5,12.2,14.8
 2003/04/05,19:00,20.8,69,12.3,14.8
 2003/04/05,19:15,22.1,67.5,12.2,14.8
 2003/04/05,19:30,21.7,67,12.2,14.7
 2003/04/05,19:45,21.2,66.5,12.2,14.7
 2003/04/05,20:00,21.2,66,12.2,14.7
 2003/04/05,20:15,21.1,65,12.2,14.7
 2003/04/05,20:30,21,65,12.2,14.7
 2003/04/05,20:45,20.4,60.5,12.1,14.7
 2003/04/05,21:00,18.6,61,12.2,14.7
 2003/04/05,21:15,18,62,12.2,14.6
 2003/04/05,21:30,21.7,61,12.2,14.6
 2003/04/05,21:45,23,61.5,12.1,14.6
 2003/04/05,22:00,22.9,61,12.1,14.6
 2003/04/05,22:15,22.4,62,12.1,14.6
 2003/04/05,22:30,22.3,62,12.1,14.6
 2003/04/05,22:45,22.4,62,12.1,14.6
 2003/04/05,23:00,22.3,62,12.1,14.5
 2003/04/05,23:15,22.5,61,12,14.5
 2003/04/05,23:30,22.3,60,12,14.5
 2003/04/05,23:45,22.2,60,12.1,14.5
 2003/04/06, 0:00,22.3,60,12,14.5
 2003/04/06, 0:15,22.4,59.5,11.9,14.5
 2003/04/06, 0:30,22.3,59,11.8,14.4
 2003/04/06, 0:45,20.6,61.5,11.8,14.4
 2003/04/06, 1:00,19.9,62,11.7,14.4
 2003/04/06, 1:15,19.4,62,11.7,14.4
 2003/04/06, 1:30,19,62,11.7,14.4
 2003/04/06, 1:45,18.6,62.5,11.7,14.4
 2003/04/06, 2:00,18.3,62,11.6,14.3
 2003/04/06, 2:15,18,63,11.6,14.3
 2003/04/06, 2:30,17.7,63,11.6,14.3
 2003/04/06, 2:45,17.5,63,11.5,14.3
 2003/04/06, 3:00,17.2,63,11.4,14.3
 2003/04/06, 3:15,17,64,11.4,14.3
 2003/04/06, 3:30,16.8,64,11.4,14.3
 2003/04/06, 3:45,16.5,64,11.4,14.2
 2003/04/06, 4:00,16.3,64,11.3,14.2
 2003/04/06, 4:15,16.2,64,11.3,14.2
 2003/04/06, 4:30,16,65,11.3,14.2
 2003/04/06, 4:45,15.9,65,11.2,14.1
 2003/04/06, 5:00,15.7,65,11.2,14.1
 2003/04/06, 5:15,15.6,65,11.2,14.1
 2003/04/06, 5:30,15.4,65,11.1,14.1
 2003/04/06, 5:45,15.2,65,11.1,14.1
 2003/04/06, 6:00,15.1,65,11,14.1
 2003/04/06, 6:15,14.9,65,10.9,14
 2003/04/06, 6:30,14.8,65,10.9,14.1
 2003/04/06, 6:45,14.7,65.5,10.9,14
 2003/04/06, 7:00,14.6,66,10.9,14
 2003/04/06, 7:15,14.6,66.5,10.9,14
 2003/04/06, 7:30,14.4,67,10.9,13.9
 2003/04/06, 7:45,14.5,67,10.9,13.9
 2003/04/06, 8:00,14.5,67,10.9,13.9
 2003/04/06, 8:15,15.9,67.5,11,13.9
 2003/04/06, 8:30,15.2,50,11.1,13.9
 2003/04/06, 8:45,15,48,11.1,13.9
 2003/04/06, 9:00,14.7,46,11.2,13.9
 2003/04/06, 9:15,15.6,45.5,11.2,13.9
 2003/04/06, 9:30,15.3,44,11.4,14.9
 2003/04/06, 9:45,15.4,45,11.8,14.9
 2003/04/06,10:00,15.9,42,12.1,14.9
 2003/04/06,10:15,16.4,46.5,12.2,14.9
 2003/04/06,10:30,17.3,54,12.4,14.9
 2003/04/06,10:45,16.9,52,13.1,14.8
 2003/04/06,11:00,16.7,54,13.2,14.8
 2003/04/06,11:15,16.7,56,13.2,14.8
 2003/04/06,11:30,16.8,58,13.3,14.8
 2003/04/06,11:45,16.9,59,13.5,14.8
 2003/04/06,12:00,16.9,59,13.6,14.7
 2003/04/06,12:15,17,59,13.8,14.7
 2003/04/06,12:30,17.1,60,14.2,14.7
 2003/04/06,12:45,17.7,57.5,14,14.7
 2003/04/06,13:00,17.9,58,14,14.7
 2003/04/06,13:15,18.2,60,14,14.6
 2003/04/06,13:30,20.4,57,14.1,14.5
 2003/04/06,13:45,19.8,58.5,14.2,14.6
 2003/04/06,14:00,19.4,59,14.3,14.6
 2003/04/06,14:15,19,54.5,14.4,14.6
 2003/04/06,14:30,18.8,56,14.4,14.5
 2003/04/06,14:45,18.6,57,14.5,14.5
 2003/04/06,15:00,18.6,57,14.5,14.5
 2003/04/06,15:15,18.5,57,14.5,14.5
 2003/04/06,15:30,18.5,56,14.6,14.5
 2003/04/06,15:45,18.6,55.5,14.6,14.6
 2003/04/06,16:00,18.5,56,14.6,14.5
 2003/04/06,16:15,18.5,55,14.6,14.6
 2003/04/06,16:30,18.6,57,14.7,14.7
 2003/04/06,16:45,18.5,58,14.7,14.7
 2003/04/06,17:00,18.5,59,14.7,14.7
 2003/04/06,17:15,18.4,59.5,14.7,14.7
 2003/04/06,17:30,18.4,60,14.7,14.7
 2003/04/06,17:45,18.2,60,14.6,14.8
 2003/04/06,18:00,18.2,60,14.6,14.8
 2003/04/06,18:15,18.1,59.5,14.6,14.8
 2003/04/06,18:30,18,58,14.9,14.8
 2003/04/06,18:45,18.1,58.5,14.6,14.8
 2003/04/06,19:00,17.9,56,14.6,14.8
 2003/04/06,19:15,18,57,14.6,14.8
 2003/04/06,19:30,18.4,62,14.5,14.9
 2003/04/06,19:45,18.1,58,14.5,14.9
 2003/04/06,20:00,17.9,56,14.6,14.9
 2003/04/06,20:15,19.6,57,14.6,14.9
 2003/04/06,20:30,20.7,57,14.5,14.9
 2003/04/06,20:45,21.1,55.5,14.5,14.9
 2003/04/06,21:00,21.6,55,14.4,15
 2003/04/06,21:15,21.5,54.5,14.4,14.8
 2003/04/06,21:30,22,55,14.5,14.9
 2003/04/06,21:45,22.2,56,14.4,14.9
 2003/04/06,22:00,22.5,56,14.5,14.9
 2003/04/06,22:15,22.6,56,14.4,14.9
 2003/04/06,22:30,22.5,54,14.4,14.9
 2003/04/06,22:45,22.6,53.5,14.4,14.9
 2003/04/06,23:00,22.5,53,14.3,14.9
 2003/04/06,23:15,22.7,52,14.3,14.9
 2003/04/06,23:30,22.6,50,14.3,14.9
 2003/04/06,23:45,22.8,49.5,14.2,14.9
 2003/04/07, 0:00,20.3,49,14.2,14.9
 2003/04/07, 0:15,19.1,52.5,14.1,14.9
 2003/04/07, 0:30,18.9,54,14,14.9
 2003/04/07, 0:45,18.9,54,13.9,14.9
 2003/04/07, 1:00,19.1,54,13.9,14.9
 2003/04/07, 1:15,19,54,13.8,14.9
 2003/04/07, 1:30,18.7,55,13.8,14.9
 2003/04/07, 1:45,18.4,55,13.7,14.9
 2003/04/07, 2:00,18.2,55,13.6,14.9
 2003/04/07, 2:15,18.1,56,13.6,14.9
 2003/04/07, 2:30,17.9,56,13.5,14.9
 2003/04/07, 2:45,17.8,56.5,13.4,14.9
 2003/04/07, 3:00,17.5,57,13.4,14.9
 2003/04/07, 3:15,17.4,57.5,13.3,14.9
 2003/04/07, 3:30,17.2,57,13.2,14.9
 2003/04/07, 3:45,17,57.5,13.2,14.9
 2003/04/07, 4:00,16.8,58,13.1,14.9
 2003/04/07, 4:15,16.6,58,13,14.9
 2003/04/07, 4:30,16.6,58,13,14.9
 2003/04/07, 4:45,16.4,58,12.9,14.9
 2003/04/07, 5:00,16.3,58,12.9,14.9
 2003/04/07, 5:15,16.1,58,12.8,14.8
 2003/04/07, 5:30,16,59,12.7,14.8
 2003/04/07, 5:45,15.9,60,12.7,14.8
 2003/04/07, 6:00,15.8,63,12.6,14.8
 2003/04/07, 6:15,15.6,62.5,12.6,14.8
 2003/04/07, 6:30,15.6,61,12.5,14.8
 2003/04/07, 6:45,17.5,62,12.4,14.8
 2003/04/07, 7:00,20.6,58,12.4,14.7
 2003/04/07, 7:15,22,58.5,12.5,14.7
 2003/04/07, 7:30,21.5,58,12.4,14.7
 2003/04/07, 7:45,21,59.5,12.4,14.7
 2003/04/07, 8:00,20,61,12.4,14.7
 2003/04/07, 8:15,18.7,60,12.4,14.6
 2003/04/07, 8:30,17.7,58,12.4,14.6
 2003/04/07, 8:45,17.5,59,12.5,14.6
 2003/04/07, 9:00,17.3,59,12.5,14.6
 2003/04/07, 9:15,17.3,59,12.7,14.6
 2003/04/07, 9:30,17.3,59,12.8,14.6
 2003/04/07, 9:45,17.2,59,12.9,14.5
 2003/04/07,10:00,17.4,59,13.1,14.5
 2003/04/07,10:15,17.5,58.5,13.3,14.5
 2003/04/07,10:30,17.6,58,13.6,14.5
 2003/04/07,10:45,17.6,57,13.8,14.5
 2003/04/07,11:00,17.7,57,14,14.5
 2003/04/07,11:15,18,57,14.3,14.5
 2003/04/07,11:30,18,57,14.5,14.4
 2003/04/07,11:45,18.1,57,14.6,14.5
 2003/04/07,12:00,18.3,56,14.9,14.5
 2003/04/07,12:15,18.5,56,14.9,14.4
 2003/04/07,12:30,18.6,56,15.1,14.4
 2003/04/07,12:45,18.7,55.5,15.2,14.4
 2003/04/07,13:00,18.9,55,15.3,14.4
 2003/04/07,13:15,19,55,15.4,14.4
 2003/04/07,13:30,19.1,55,15.5,14.4
 2003/04/07,13:45,19.1,55,15.6,14.4
 2003/04/07,14:00,19.3,55,15.7,14.4
 2003/04/07,14:15,19.3,54.5,15.9,14.4
 2003/04/07,14:30,19.4,55,15.9,14.4
 2003/04/07,14:45,19.4,55,16,14.4
 2003/04/07,15:00,19.5,55,16.1,14.4
 2003/04/07,15:15,19.5,55,16.1,14.4
 2003/04/07,15:30,19.5,55,16.1,14.4
 2003/04/07,15:45,19.5,54.5,16.2,14.4
 2003/04/07,16:00,19.5,55,16.2,14.5
 2003/04/07,16:15,19.4,54,16.3,14.4
 2003/04/07,16:30,19.5,55,16.3,14.5
 2003/04/07,16:45,19.4,54.5,16.4,14.5
 2003/04/07,17:00,19.4,55,16.4,14.5
 2003/04/07,17:15,19.4,55,16.4,14.5
 2003/04/07,17:30,19.3,54,16.3,14.5
 2003/04/07,17:45,19.3,55,16.4,14.5
 2003/04/07,18:00,19.3,55,16.3,14.5